This demonstration page uses our WeatherBlox Daily Observations layout. Learn more.

Left ArrowRight Arrow

36.19886, -115.1175

Hourly Observations for December 26, 2021

Temp ( °F °C ) Dew Point ( °F °C ) Humidity (%) Winds ( mph kmh ) Pressure ( in mb ) Visibility ( mi km ) Precip ( " mm )
12:53 am 00:53 Mostly Cloudy 51 10.6 31 -0.6 46 46 SSW 18 30 29.77 1008 10 16 0.00 0.00
1:53 am 01:53 Cloudy 51 10.6 30 -1.1 44 44 S 17 28 29.77 1008 10 16 0.00 0.00
2:53 am 02:53 Cloudy 49 9.4 33 0.6 55 55 S 18 30 29.77 1008 10 16 0.00 0.00
3:53 am 03:53 Mostly Clear 51 10.6 29 -1.7 43 43 SSW 23 37 29.75 1008 10 16 0.00 0.00
4:53 am 04:53 Clear 50 10 28 -2.2 43 43 SW 23 37 29.76 1008 10 16 0.00 0.00
5:53 am 05:53 Clear 49 9.4 21 -6.1 33 33 SW 8 13 29.80 1009 10 16 0.00 0.00
6:53 am 06:53 Sunny 47 8.3 22 -5.6 37 37 SW 28 44 29.83 1010 10 16 0.00 0.00
7:53 am 07:53 Sunny 48 8.9 20 -6.7 33 33 WSW 23 37 29.87 1012 10 16 0.00 0.00
8:53 am 08:53 Sunny 50 10 21 -6.1 32 32 WSW 18 30 29.90 1013 10 16 0.00 0.00
9:53 am 09:53 Sunny 53 11.7 21 -6.1 28 28 SW 10 17 29.93 1014 10 16 0.00 0.00
10:53 am 10:53 Sunny 53 11.7 19 -7.2 26 26 SW 6 9 29.92 1013 10 16 0.00 0.00
11:53 am 11:53 Sunny 54 12.2 21 -6.1 28 28 VRB 5 7 29.91 1013 10 16 0.00 0.00
12:53 pm 12:53 Sunny 55 12.8 23 -5 29 29 SSE 16 26 29.90 1013 10 16 0.00 0.00
1:53 pm 13:53 Sunny 56 13.3 22 -5.6 27 27 S 9 15 29.90 1013 10 16 0.00 0.00
2:53 pm 14:53 Sunny 55 12.8 22 -5.6 28 28 SW 13 20 29.91 1013 10 16 0.00 0.00
3:01 pm 15:01 Sunny 55 12.8 22 -5.6 28 28 WSW 16 26 29.85 1011 10 16 0.00 0.00
3:53 pm 15:53 Sunny 53 11.7 21 -6.1 28 28 SW 10 17 29.93 1013 10 16 0.00 0.00
4:53 pm 16:53 Clear 51 10.6 23 -5 33 33 S 10 17 29.92 1013 10 16 0.00 0.00
5:53 pm 17:53 Clear 49 9.4 22 -5.6 35 35 S 9 15 29.93 1013 10 16 0.00 0.00
6:53 pm 18:53 Clear 48 8.9 23 -5 37 37 S 9 15 29.93 1014 10 16 0.00 0.00
7:53 pm 19:53 Clear 48 8.9 21 -6.1 34 34 S 12 19 29.94 1014 10 16 0.00 0.00
8:53 pm 20:53 Clear 46 7.8 21 -6.1 37 37 Calm 29.96 1015 10 16 0.00 0.00
9:53 pm 21:53 Clear 45 7.2 19 -7.2 35 35 SSE 10 17 29.94 1014 10 16 0.00 0.00
10:53 pm 22:53 Clear 47 8.3 19 -7.2 33 33 SSE 13 20 29.91 1013 10 16 0.00 0.00
11:53 pm 23:53 Clear 46 7.8 21 -6.1 37 37 W 7 11 29.91 1013 10 16 0.00 0.00

Powered by AerisWeather